map of ASB home
Great Circle Mapper logo
ASB - Airport
Location
City:  Ashgabat, Ahal, Turkmenistan
Near (Alt.):Ashkhabad
Name:Ashgabat Airport
Old (Alt.):Saparmurat Turkmenbashy International Airport
ICAO / IATA:UTAA / ASB

Details
Type:Airport (Aerodrome, Airfield)
Use:Public/Civil, International (customs port of entry)
Latitude:3759'13"N (37.986814)
Longitude:5821'39"E (58.360967)
Elevation:692 ft (211 m)
Variation:4.8E (WMM2010 magnetic declination)
Runways:3
Longest:12467 × 151 ft (3800 × 46 m), paved

Time
Time Zone:UTC+5
Local Time:

Weather
METAR:UTAA 290530Z 09002MPS 050V130 3900 BR OVC004 01/01 Q1027 R12/290055 NOSIG

Related Locations
Nearby:
Farthest:IPC: 11407 mi / 18358 km
Easter Island (Isla de Pascua, Rapa Nui) [Mataveri Intl], VS, CL

Find:

   beyond  
but within

Other Information
Maps:
NOTAMs:
Links:
Sources:

  
flag of Turkmenistan   

Sectional Chart

Flight Planning
at skyvector.com

Satellite Image

Google Maps Satellite View

 

Copyright © 2004-2014 Karl L. Swartz. All rights reserved.
The Great Circle Mapper name and logo are trademarks of the Great Circle Mapper.
All other trademarks mentioned herein belong to their respective owners.
Please see credits for attibutions and further copyright information.

  Follow gcmap on Facebook Follow gcmap on Twitter

hCard Microformat

Geo Microformat